Location: Unspecified
(58.9933°N, 5.6375°E)
Time: 07:57:46
(UTC+01:00)

CZ-3 Stage 3 - Visible Passes

Search period start: 26 October 2014 00:00
Search period end: 04 November 2014 23:00
Orbit: 416 x 34822 km, 30.9° (Epoch: 24 October)

Date Brightness Start Highest point End Pass type
(mag) Time Alt. Az. Time Alt. Az. Time Alt. Az.
26 Oct 7.2 02:28:53 10° SW 06:44:59 31° SSW 06:58:05 10° SSE visible
26 Oct 7.7 22:22:03 10° SSE 02:51:14 34° SSE 03:23:23 10° ESE visible
27 Oct 8.4 21:43:42 10° ESE 22:53:47 15° ESE 23:29:09 10° E visible
29 Oct 7.1 02:12:52 10° SW 06:41:09 31° SSW 06:54:14 10° SSE visible
29 Oct 7.7 22:06:30 10° SSE 02:47:44 35° SSE 03:19:46 10° ESE visible
30 Oct 8.4 21:24:28 10° ESE 22:49:25 16° ESE 23:28:20 10° E visible
01 Nov 7.1 01:56:56 10° SW 06:37:10 30° SSW 06:50:15 10° SSE visible
01 Nov 7.7 21:51:08 10° SSE 02:44:06 36° SSE 03:16:01 10° ESE visible
02 Nov 8.3 21:05:59 10° ESE 22:44:55 18° ESE 23:26:41 10° E visible
04 Nov 7.0 01:41:13 10° SW 06:33:03 30° SSW 06:46:09 10° SSE visible
04 Nov 10.5 21:35:57 10° SSE 23:00:00 18° SSE 23:00:00 18° SSE visible
